When you browse on this site, cookies collect data to enhance your experience and personalize the content and advertising you see.
Visit our Privacy Policy to learn more. By continuing to use the site, you agree to this use of cookies and data.
  • In Österreich
  • Länderverzeichnis
  • Für 7 Tage
  • Wassertemperatur
  • Wetterkarte
  • News
  • Widgets
  • user-avatar
    Anmelden

    Stündliche Wetter Zapadnyy

    Heute, 29 Mai, Freitag

    Zeit Temperatur Niederschläge Wind Luftdruck Luftfeuchtigkeit
    00:00 +11°C° 0.2 mm 1 m/S 749 mmHg 93%
    01:00 +11°C° 0.2 mm 1 m/S 749 mmHg 94%
    02:00 +11°C° 0 mm 1 m/S 748 mmHg 96%
    03:00 +11°C° 1.3 mm 1 m/S 748 mmHg 96%
    04:00 +10°C° 1.3 mm 2 m/S 748 mmHg 96%
    05:00 +10°C° 1.3 mm 2 m/S 747 mmHg 96%
    06:00 +11°C° 0.9 mm 3 m/S 747 mmHg 95%
    07:00 +11°C° 0.9 mm 4 m/S 747 mmHg 94%
    08:00 +10°C° 0 mm 5 m/S 747 mmHg 95%
    09:00 +12°C° 0.2 mm 5 m/S 747 mmHg 94%
    10:00 +11°C° 0.2 mm 6 m/S 747 mmHg 93%
    11:00 +11°C° 0.2 mm 6 m/S 747 mmHg 92%
    12:00 +11°C° 0.1 mm 6 m/S 747 mmHg 91%
    13:00 +11°C° 0.1 mm 6 m/S 747 mmHg 90%
    14:00 +11°C° 0.1 mm 6 m/S 747 mmHg 89%
    15:00 +11°C° 0 mm 6 m/S 746 mmHg 87%
    16:00 +11°C° 0 mm 6 m/S 746 mmHg 85%
    17:00 +13°C° 0 mm 6 m/S 746 mmHg 83%
    18:00 +11°C° 0 mm 6 m/S 746 mmHg 83%
    19:00 +11°C° 0 mm 6 m/S 746 mmHg 83%
    20:00 +12°C° 0 mm 5 m/S 745 mmHg 83%
    21:00 +12°C° 0 mm 5 m/S 745 mmHg 84%
    22:00 +12°C° 0 mm 5 m/S 745 mmHg 84%
    23:00 +12°C° 0 mm 5 m/S 745 mmHg 84%

    Morgen, 30 Mai, Samstag

    Zeit Temperatur Niederschläge Wind Luftdruck Luftfeuchtigkeit
    00:00 +12°C° 0.1 mm 5 m/S 744 mmHg 86%
    01:00 +12°C° 0.1 mm 5 m/S 744 mmHg 88%
    02:00 +12°C° 0.1 mm 5 m/S 744 mmHg 90%
    03:00 +12°C° 0 mm 5 m/S 743 mmHg 90%
    04:00 +12°C° 0 mm 5 m/S 743 mmHg 91%
    05:00 +12°C° 0 mm 5 m/S 742 mmHg 92%
    06:00 +12°C° 0.3 mm 5 m/S 742 mmHg 92%
    07:00 +12°C° 0.3 mm 5 m/S 742 mmHg 93%
    08:00 +13°C° 0.3 mm 5 m/S 741 mmHg 94%
    09:00 +13°C° 1 mm 5 m/S 741 mmHg 94%
    10:00 +13°C° 1 mm 5 m/S 741 mmHg 95%
    11:00 +13°C° 1 mm 5 m/S 740 mmHg 96%
    12:00 +13°C° 1.1 mm 5 m/S 740 mmHg 95%
    13:00 +14°C° 1.1 mm 5 m/S 739 mmHg 95%
    14:00 +14°C° 1.1 mm 5 m/S 739 mmHg 94%
    15:00 +14°C° 2.9 mm 5 m/S 738 mmHg 95%
    16:00 +14°C° 2.9 mm 5 m/S 738 mmHg 96%
    17:00 +14°C° 2.9 mm 5 m/S 737 mmHg 97%
    18:00 +14°C° 3.9 mm 6 m/S 737 mmHg 97%
    19:00 +14°C° 3.9 mm 6 m/S 737 mmHg 97%
    20:00 +15°C° 3.9 mm 7 m/S 736 mmHg 96%
    21:00 +15°C° 0.9 mm 6 m/S 736 mmHg 96%
    22:00 +14°C° 0.9 mm 5 m/S 736 mmHg 97%
    23:00 +14°C° 0.9 mm 5 m/S 736 mmHg 97%

    übermorgen, 31 Mai, Sonntag

    Zeit Temperatur Niederschläge Wind Luftdruck Luftfeuchtigkeit
    00:00 +14°C° 0.2 mm 4 m/S 737 mmHg 97%
    01:00 +13°C° 0.2 mm 4 m/S 737 mmHg 97%
    02:00 +13°C° 0.2 mm 3 m/S 737 mmHg 97%
    03:00 +12°C° 0 mm 3 m/S 738 mmHg 97%
    04:00 +12°C° 0 mm 3 m/S 738 mmHg 97%
    05:00 +12°C° 0 mm 3 m/S 739 mmHg 97%
    06:00 +13°C° 0 mm 2 m/S 740 mmHg 95%
    07:00 +14°C° 0 mm 2 m/S 740 mmHg 94%
    08:00 +14°C° 0 mm 2 m/S 741 mmHg 93%
    09:00 +14°C° 0.9 mm 2 m/S 741 mmHg 94%
    10:00 +14°C° 0.9 mm 2 m/S 742 mmHg 95%
    11:00 +13°C° 0.9 mm 3 m/S 742 mmHg 96%
    12:00 +13°C° 1.3 mm 4 m/S 743 mmHg 96%
    13:00 +13°C° 1.3 mm 5 m/S 743 mmHg 95%
    14:00 +13°C° 1.3 mm 6 m/S 743 mmHg 94%
    15:00 +12°C° 0.2 mm 5 m/S 744 mmHg 93%
    16:00 +12°C° 0.2 mm 5 m/S 744 mmHg 91%
    17:00 +12°C° 0.2 mm 4 m/S 744 mmHg 89%
    18:00 +12°C° 0.1 mm 4 m/S 745 mmHg 88%
    19:00 +12°C° 0.1 mm 4 m/S 745 mmHg 88%
    20:00 +12°C° 0.1 mm 4 m/S 745 mmHg 88%
    21:00 +11°C° 0 mm 4 m/S 746 mmHg 89%
    22:00 +10°C° 0 mm 3 m/S 746 mmHg 90%
    23:00 +9°C° 0 mm 3 m/S 746 mmHg 92%

    1 Juni, Montag

    Zeit Temperatur Niederschläge Wind Luftdruck Luftfeuchtigkeit
    00:00 +8°C° 0 mm 4 m/S 746 mmHg 90%
    01:00 +8°C° 0 mm 4 m/S 747 mmHg 88%
    02:00 +8°C° 0 mm 4 m/S 747 mmHg 87%
    03:00 +8°C° 0 mm 4 m/S 747 mmHg 86%
    04:00 +7°C° 0 mm 5 m/S 748 mmHg 85%
    05:00 +7°C° 0 mm 5 m/S 748 mmHg 85%
    06:00 +8°C° 0 mm 5 m/S 748 mmHg 77%
    07:00 +9°C° 0 mm 6 m/S 749 mmHg 69%
    08:00 +10°C° 0 mm 6 m/S 749 mmHg 62%
    09:00 +11°C° 0 mm 6 m/S 749 mmHg 59%
    10:00 +13°C° 0 mm 6 m/S 750 mmHg 56%
    11:00 +14°C° 0 mm 6 m/S 750 mmHg 53%
    12:00 +14°C° 0 mm 6 m/S 750 mmHg 54%
    13:00 +14°C° 0 mm 5 m/S 749 mmHg 54%
    14:00 +14°C° 0 mm 5 m/S 749 mmHg 55%
    15:00 +13°C° 0 mm 5 m/S 749 mmHg 56%
    16:00 +13°C° 0 mm 5 m/S 749 mmHg 58%
    17:00 +13°C° 0 mm 5 m/S 749 mmHg 59%
    18:00 +12°C° 0 mm 4 m/S 749 mmHg 65%
    19:00 +10°C° 0 mm 3 m/S 749 mmHg 71%
    20:00 +9°C° 0 mm 2 m/S 749 mmHg 76%
    21:00 +8°C° 0 mm 2 m/S 749 mmHg 78%
    22:00 +7°C° 0 mm 2 m/S 749 mmHg 80%
    23:00 +6°C° 0 mm 2 m/S 750 mmHg 82%

    2 Juni, Dienstag

    Zeit Temperatur Niederschläge Wind Luftdruck Luftfeuchtigkeit
    00:00 +6°C° 0 mm 2 m/S 749 mmHg 84%
    01:00 +5°C° 0 mm 2 m/S 749 mmHg 86%
    02:00 +5°C° 0 mm 2 m/S 749 mmHg 88%
    03:00 +5°C° 0 mm 2 m/S 749 mmHg 87%
    04:00 +5°C° 0 mm 2 m/S 749 mmHg 87%
    05:00 +5°C° 0 mm 2 m/S 749 mmHg 87%
    06:00 +7°C° 0 mm 2 m/S 749 mmHg 79%
    07:00 +9°C° 0 mm 2 m/S 749 mmHg 72%
    08:00 +11°C° 0 mm 3 m/S 749 mmHg 64%
    09:00 +12°C° 0.1 mm 3 m/S 749 mmHg 60%
    10:00 +13°C° 0.1 mm 3 m/S 748 mmHg 56%
    11:00 +14°C° 0.1 mm 4 m/S 748 mmHg 51%
    12:00 +15°C° 0.2 mm 4 m/S 748 mmHg 53%
    13:00 +15°C° 0.2 mm 4 m/S 747 mmHg 54%
    14:00 +15°C° 0.2 mm 4 m/S 747 mmHg 56%
    15:00 +15°C° 0.3 mm 4 m/S 747 mmHg 58%
    16:00 +15°C° 0.3 mm 4 m/S 747 mmHg 61%
    17:00 +16°C° 0.3 mm 3 m/S 746 mmHg 63%
    18:00 +13°C° 0.1 mm 3 m/S 746 mmHg 71%
    19:00 +12°C° 0.1 mm 2 m/S 746 mmHg 78%
    20:00 +10°C° 0.1 mm 2 m/S 746 mmHg 86%
    21:00 +9°C° 0 mm 2 m/S 746 mmHg 88%
    22:00 +8°C° 0 mm 2 m/S 746 mmHg 91%
    23:00 +8°C° 0 mm 1 m/S 746 mmHg 93%

    3 Juni, Mittwoch

    Zeit Temperatur Niederschläge Wind Luftdruck Luftfeuchtigkeit
    00:00 +8°C° 0 mm 1 m/S 746 mmHg 94%
    01:00 +7°C° 0 mm 1 m/S 746 mmHg 94%
    02:00 +7°C° 0 mm 1 m/S 745 mmHg 94%
    03:00 +7°C° 0 mm 1 m/S 745 mmHg 94%
    04:00 +7°C° 0 mm 1 m/S 745 mmHg 94%
    05:00 +7°C° 0 mm 1 m/S 745 mmHg 93%
    06:00 +9°C° 0 mm 1 m/S 745 mmHg 86%
    07:00 +11°C° 0 mm 1 m/S 745 mmHg 78%
    08:00 +13°C° 0 mm 1 m/S 745 mmHg 70%
    09:00 +14°C° 0.1 mm 2 m/S 745 mmHg 64%
    10:00 +16°C° 0.1 mm 2 m/S 745 mmHg 58%
    11:00 +17°C° 0.1 mm 2 m/S 745 mmHg 51%
    12:00 +17°C° 0.1 mm 2 m/S 744 mmHg 50%
    13:00 +18°C° 0.1 mm 2 m/S 744 mmHg 48%
    14:00 +18°C° 0.1 mm 2 m/S 744 mmHg 47%
    15:00 +18°C° 0 mm 2 m/S 744 mmHg 50%
    16:00 +17°C° 0 mm 2 m/S 744 mmHg 53%
    17:00 +17°C° 0 mm 2 m/S 743 mmHg 56%
    18:00 +15°C° 0 mm 1 m/S 743 mmHg 63%
    19:00 +13°C° 0 mm 1 m/S 743 mmHg 70%
    20:00 +12°C° 0 mm 1 m/S 743 mmHg 76%
    21:00 +10°C° 0 mm 0 m/S 743 mmHg 79%
    22:00 +9°C° 0 mm 0 m/S 743 mmHg 82%
    23:00 +8°C° 0 mm 0 m/S 744 mmHg 85%
    Mehr zeigen